Miscellaneous Local Product
Issued by NWS Hastings, NE

Home | Current Version | Previous Version | Graphics & Text | Print | Product List | Glossary On
Versions: 1 2 3 4 5 6 7 8 9 10 11 12 13 14 15 16 17 18 19 20 21 22 23 24 25 26 27 28 29 30 31 32 33 34 35 36 37 38 39 40 41 42 43 44 45 46 47 48 49 50
000
AXUS43 KGID 282002
MISGRI

GID CWA HOURLY WEATHER ROUNDUP
NATIONAL WEATHER SERVICE HASTINGS NE
200 PM CST SAT FEB 28 2015

NOTE: "FAIR" INDICATES FEW OR NO CLOUDS BELOW 12,000 FEET WITH NO
SIGNIFICANT WEATHER AND/OR OBSTRUCTIONS TO VISIBILITY.

...SOUTH CENTRAL NEBRASKA...

CITY           SKY/WX    TMP DP  RH WIND       PRES   REMARKS
GRAND ISLAND   CLOUDY    23  11  60 S12G21    30.29F WCI  12
HASTINGS       CLOUDY    21  13  71 S12       30.27F WCI   9
KEARNEY        CLOUDY    25  10  54 S9G18     30.24F WCI  15
ORD            SUNNY     28   7  41 SW14      30.21F WCI  17
YORK           PTSUNNY   19  16  86 S10       30.33S HAZE    WCI   8
AURORA         LGT SNOW  22  14  72 S12       30.29F WCI  11
LEXINGTON      CLOUDY    26  11  52 SW8G16    30.21F WCI  18
HOLDREGE       PTSUNNY   22  12  66 S10G21    30.24F WCI  11
HEBRON         LGT SNOW  21  14  75 S8        30.34F WCI  11

...NEBRASKA PANHANDLE...

CITY           SKY/WX    TMP DP  RH WIND       PRES   REMARKS
CHADRON        PTSUNNY   25  13  60 SW6       30.09F WCI  18
ALLIANCE       SUNNY     27   9  46 VRB5      30.03F WCI  22
SCOTTSBLUFF    MOSUNNY   31  12  45 VRB5      30.03F WCI  26
SIDNEY         MOSUNNY   25  14  63 SW5       30.02F WCI  19

...WESTERN AND NORTH CENTRAL NEBRASKA...

CITY           SKY/WX    TMP DP  RH WIND       PRES   REMARKS
VALENTINE      MOSUNNY   32  10  40 MISG      30.11F
AINSWORTH      SUNNY     28  11  47 W15       30.13F WCI  17
ONEILL         SUNNY     29  11  47 SW15G24   30.20F WCI  18
BROKEN BOW     MOSUNNY   29  10  45 S14       30.17F WCI  18
IMPERIAL         N/A     24   9  52 S7        30.10F WCI  16
NORTH PLATTE   PTSUNNY   27   9  46 S10       30.15F WCI  17
MCCOOK         CLOUDY    27  11  51 S9        30.18F WCI  18

...EASTERN NEBRASKA...

CITY           SKY/WX    TMP DP  RH WIND       PRES   REMARKS
NORFOLK        CLOUDY    27  10  49 S13G23    30.27F WCI  16
SO SIOUX CITY  CLOUDY    25  14  63 S15       30.35F WCI  13
COLUMBUS       PTSUNNY   25   7  46 SW15G22   30.33F WCI  12
ALBION         MOSUNNY   28  10  46 S15G24    30.26F WCI  16
OMAHA EPPLEY   LGT SNOW  22  14  71 S13       30.40F FOG     WCI  10
OFFUTT AFB     LGT SNOW  21  16  79 SE8       30.39F WCI  12
MILLARD        LGT SNOW  22  15  74 SE9       30.39F WCI  12
LINCOLN        LGT SNOW  21  16  81 S8        30.38F WCI  11
NEBRASKA CITY  LGT SNOW  22  15  75 S6        30.39F WCI  14
BEATRICE       LGT SNOW  22  17  81 S8        30.36F WCI  13
FALLS CITY     LGT SNOW  23  17  78 S9        30.41F WCI  13

...NORTHERN KANSAS...

CITY           SKY/WX    TMP DP  RH WIND       PRES   REMARKS
GOODLAND       LGT SNOW  18  11  74 S8        30.08F WCI   8
HILL CITY      CLOUDY    20  13  74 SE9       30.23F WCI   9
NORTON         CLOUDY    19  12  73 SE8       30.21F WCI   9
PHILLIPSBURG   CLOUDY    23  16  74 E6        30.27F WCI  16
SMITH CENTER   CLOUDY    18  12  79 S8        30.30F WCI   7
BELOIT         CLOUDY    21  16  79 SE8       30.34F WCI  12
HAYS           CLOUDY    19   7  58 S10       30.27F WCI   8
RUSSELL        CLOUDY    19  13  77 S12       30.27F WCI   7
CONCORDIA      LGT SNOW  20  15  81 S7        30.33F WCI  11
SALINA         CLOUDY    22  15  75 S7        30.36F WCI  13
TOPEKA         LGT SNOW  22  19  89 SE7       30.42F VSB 3/4 WCI  13



USA.gov is the U.S. government's official web portal to all federal, state and local government web resources and services.